This demonstration page uses our WeatherBlox Daily Observations layout. Learn more.

Hourly Observations for April 7, 2017

Temp ( °F °C ) Dew Point ( °F °C ) Humidity (%) Winds ( mph kmh ) Pressure ( in mb ) Visibility ( mi km ) Precip ( " mm )
12:15 am 00:15 Clear 40 4.5 29 -1.7 64 64 SE 9 15 30.21 1023 10 16.0934 0 0
12:35 am 00:35 Clear 40 4.5 29 -1.8 64 64 SE 9 15 30.21 1023 10 16.0934 0 0
12:55 am 00:55 Clear 39 4 29 -1.7 67 67 SE 9 15 30.24 1024 10 16.0934 0 0
1:15 am 01:15 Clear 39 3.9 28 -2 66 66 SSE 8 13 30.24 1024 10 16.0934 0 0
1:35 am 01:35 Clear 37 3 28 -2.2 69 69 SSE 7 11 30.24 1024 10 16.0934 0 0
1:55 am 01:55 Clear 37 2.6 28 -2.3 70 70 SE 7 11 30.24 1024 10 16.0934 0 0
2:15 am 02:15 Clear 36 2.3 28 -2.3 72 72 SSE 6 9 30.24 1024 10 16.0934 0 0
2:35 am 02:35 Clear 37 2.6 28 -2 72 72 SSE 8 13 30.24 1024 10 16.0934 0 0
2:55 am 02:55 Clear 38 3.1 28 -2.2 69 69 SSE 9 15 30.24 1024 10 16.0934 0 0
3:15 am 03:15 Clear 38 3.1 28 -2.3 68 68 SSE 10 17 30.21 1023 10 16.0934 0 0
3:35 am 03:35 Clear 37 2.7 28 -2.3 70 70 SSE 10 17 30.21 1023 10 16.0934 0 0
3:55 am 03:55 Clear 37 3 28 -2.1 69 69 SSE 9 15 30.21 1023 10 16.0934 0 0
4:15 am 04:15 Clear 37 2.9 29 -1.8 72 72 SSE 9 15 30.21 1023 10 16.0934 0 0
4:35 am 04:35 Clear 38 3.1 29 -1.5 72 72 SSE 9 15 30.21 1023 10 16.0934 0 0
4:55 am 04:55 Clear 37 2.7 29 -1.5 74 74 SSE 6 9 30.21 1023 10 16.0934 0 0
5:15 am 05:15 Clear 35 1.8 29 -1.5 79 79 SSE 7 11 30.21 1023 10 16.0934 0 0
5:35 am 05:35 Clear 35 1.6 30 -1.2 82 82 SSE 6 9 30.21 1023 10 16.0934 0 0
5:55 am 05:55 Clear 35 1.5 30 -1.1 83 83 SSE 8 13 30.21 1023 10 16.0934 0 0
6:15 am 06:15 Clear 36 2.2 31 -0.7 81 81 SSE 8 13 30.21 1023 10 16.0934 0 0
6:35 am 06:35 Clear 36 2.3 31 -0.6 81 81 SSE 9 15 30.21 1023 10 16.0934 0 0
6:55 am 06:55 Clear 37 3 31 -0.4 79 79 SSE 10 17 30.21 1023 10 16.0934 0 0
7:15 am 07:15 Sunny 36 2 31 -0.7 83 83 SSE 7 11 30.21 1023 10 16.0934 0 0
7:35 am 07:35 Sunny 37 2.5 31 -0.4 81 81 S 8 13 30.21 1023 10 16.0934 0 0
7:55 am 07:55 Sunny 38 3.5 32 0 78 78 S 9 15 30.18 1022 10 16.0934 0 0
8:15 am 08:15 Sunny 40 4.3 33 0.3 75 75 S 10 17 30.15 1021 10 16.0934 0 0
8:35 am 08:35 Sunny 42 5.4 34 0.9 73 73 S 13 20 30.15 1021 10 16.0934 0 0
8:55 am 08:55 Sunny 43 6.3 34 1 69 69 S 12 19 30.15 1021 10 16.0934 0 0
9:15 am 09:15 Sunny 47 8.1 34 1.2 62 62 S 16 26 30.12 1020 10 16.0934 0 0
9:35 am 09:35 Sunny 49 9.4 34 1 56 56 S 20 31 30.12 1020 10 16.0934 0 0
9:55 am 09:55 Sunny 51 10.3 34 1.2 54 54 S 16 26 30.06 1018 10 16.0934 0 0
10:15 am 10:15 Sunny 52 11.3 34 0.9 49 49 S 23 37 30.06 1018 10 16.0934 0 0
10:35 am 10:35 Sunny 55 12.5 33 0.7 45 45 S 23 37 30.06 1018 10 16.0934 0 0
10:55 am 10:55 Sunny 56 13.2 33 0.6 42 42 S 21 33 30.03 1017 10 16.0934 0 0
11:15 am 11:15 Sunny 56 13.5 33 0.7 42 42 S 23 37 30 1016 10 16.0934 0 0
11:35 am 11:35 Sunny 58 14.2 34 1.1 41 41 S 25 41 30 1016 10 16.0934 0 0
11:55 am 11:55 Sunny 59 15.1 33 0.8 38 38 S 30 48 29.97 1015 10 16.0934 0 0
12:15 pm 12:15 Sunny 60 15.8 33 0.6 36 36 S 23 37 29.97 1015 10 16.0934 0 0
12:35 pm 12:35 Sunny 62 16.5 33 0.8 35 35 S 24 39 29.91 1013 10 16.0934 0 0
12:55 pm 12:55 Sunny 63 17.1 33 0.7 33 33 S 23 37 29.91 1013 10 16.0934 0 0
1:15 pm 13:15 Sunny 64 17.5 33 0.3 31 31 S 23 37 29.91 1013 10 16.0934 0 0
1:35 pm 13:35 Sunny 63 17.2 33 0.5 33 33 S 25 41 29.91 1013 10 16.0934 0 0
1:55 pm 13:55 Sunny 63 17.1 33 0.5 33 33 S 23 37 29.88 1012 10 16.0934 0 0
2:15 pm 14:15 Sunny 63 17.1 33 0.6 33 33 S 18 30 29.88 1012 10 16.0934 0 0
2:35 pm 14:35 Sunny 63 17.3 34 0.9 33 33 S 25 41 29.85 1011 10 16.0934 0 0
2:55 pm 14:55 Sunny 66 18.9 34 1.2 31 31 S 26 43 29.83 1010 10 16.0934 0 0
3:15 pm 15:15 Sunny 67 19.2 34 1.3 30 30 S 26 43 29.83 1010 10 16.0934 0 0
3:35 pm 15:35 Sunny 67 19.5 35 1.5 30 30 S 25 41 29.8 1009 10 16.0934 0 0
3:55 pm 15:55 Sunny 68 19.9 35 1.8 30 30 S 21 33 29.8 1009 10 16.0934 0 0
4:15 pm 16:15 Sunny 69 20.4 36 2.1 30 30 S 25 41 29.77 1008 10 16.0934 0 0
4:35 pm 16:35 Sunny 69 20.5 36 2.4 30 30 S 24 39 29.74 1007 10 16.0934 0 0
4:55 pm 16:55 Sunny 68 20.2 37 2.6 31 31 S 24 39 29.74 1007 10 16.0934 0 0
5:15 pm 17:15 Sunny 68 20.1 37 2.8 32 32 S 26 43 29.74 1007 10 16.0934 0 0
5:35 pm 17:35 Sunny 68 20.1 38 3.2 33 33 S 23 37 29.71 1006 10 16.0934 0 0
5:55 pm 17:55 Sunny 69 20.6 38 3.5 33 33 S 25 41 29.71 1006 10 16.0934 0 0
6:15 pm 18:15 Sunny 69 20.5 38 3.1 32 32 S 25 41 29.71 1006 10 16.0934 0 0
6:35 pm 18:35 Sunny 67 19.6 38 3.6 35 35 S 18 30 29.71 1006 10 16.0934 0 0
6:55 pm 18:55 Sunny 66 19 39 3.9 37 37 S 18 30 29.71 1006 10 16.0934 0 0
7:15 pm 19:15 Sunny 65 18.5 39 4.1 39 39 S 16 26 29.71 1006 10 16.0934 0 0
7:35 pm 19:35 Sunny 64 18 40 4.3 40 40 S 18 30 29.71 1006 10 16.0934 0 0
7:55 pm 19:55 Sunny 63 17.1 40 4.5 43 43 SSE 15 24 29.74 1007 10 16.0934 0 0
8:15 pm 20:15 Clear 62 16.5 40 4.6 45 45 SSE 15 24 29.74 1007 10 16.0934 0 0
8:35 pm 20:35 Clear 60 15.8 41 4.8 48 48 SSE 16 26 29.74 1007 10 16.0934 0 0
8:55 pm 20:55 Clear 60 15.7 41 5 49 49 S 20 31 29.74 1007 10 16.0934 0 0
9:15 pm 21:15 Clear 60 15.3 41 5.1 51 51 SSE 16 26 29.74 1007 10 16.0934 0 0
9:35 pm 21:35 Clear 57 14 41 5.1 55 55 SSE 14 22 29.74 1007 10 16.0934 0 0
9:55 pm 21:55 Clear 57 13.7 42 5.3 57 57 SSE 15 24 29.77 1008 10 16.0934 0 0
10:15 pm 22:15 Clear 57 13.9 42 5.5 57 57 SSE 16 26 29.74 1007 10 16.0934 0 0
10:35 pm 22:35 Clear 56 13.3 42 5.6 60 60 SSE 14 22 29.77 1008 10 16.0934 0 0
10:55 pm 22:55 Clear 55 12.5 42 5.5 63 63 SSE 13 20 29.77 1008 10 16.0934 0 0
11:15 pm 23:15 Clear 55 12.7 42 5.8 63 63 SSE 15 24 29.74 1007 10 16.0934 0 0
11:35 pm 23:35 Clear 55 12.7 43 6 64 64 SSE 16 26 29.74 1007 10 16.0934 0 0
11:55 pm 23:55 Clear 55 12.5 43 6 65 65 S 16 26 29.74 1007 10 16.0934 0 0

Powered by AerisWeather